TimeCDT,TemperatureF,Dew PointF,Humidity,Sea Level PressureIn,VisibilityMPH,Wind Direction,Wind SpeedMPH,Gust SpeedMPH,PrecipitationIn,Events,Conditions,WindDirDegrees,DateUTC
12:02 AM,44.6,35.6,71,29.36,10.0,West,20.7,28.8,N/A,,Overcast,280,2012-10-18 05:02:00
12:53 AM,45.0,35.1,68,29.35,10.0,WNW,24.2,32.2,N/A,,Overcast,290,2012-10-18 05:53:00
1:53 AM,45.0,36.0,71,29.33,10.0,West,19.6,28.8,N/A,,Overcast,280,2012-10-18 06:53:00
2:53 AM,43.0,37.9,82,29.34,10.0,West,17.3,24.2,0.00,,Overcast,280,2012-10-18 07:53:00
3:53 AM,43.0,37.0,80,29.33,10.0,West,18.4,-,0.00,,Overcast,280,2012-10-18 08:53:00
4:39 AM,42.8,39.2,87,29.32,8.0,West,15.0,-,0.00,Rain,Light Rain,270,2012-10-18 09:39:00
4:53 AM,42.1,39.0,89,29.31,8.0,West,16.1,-,0.01,Rain,Light Rain,270,2012-10-18 09:53:00
5:53 AM,42.1,37.9,85,29.29,10.0,West,17.3,27.6,0.00,,Overcast,270,2012-10-18 10:53:00
6:05 AM,42.8,37.4,81,29.29,10.0,West,17.3,25.3,N/A,,Overcast,280,2012-10-18 11:05:00
6:50 AM,41.0,37.4,87,29.29,4.0,West,17.3,26.5,0.00,Rain,Light Rain,280,2012-10-18 11:50:00
6:53 AM,41.0,37.9,89,29.29,4.0,West,16.1,26.5,0.00,Rain,Light Rain,270,2012-10-18 11:53:00
7:39 AM,39.2,37.4,93,29.29,10.0,West,18.4,-,0.00,,Overcast,270,2012-10-18 12:39:00
7:51 AM,39.2,37.4,93,29.28,10.0,West,16.1,24.2,0.00,,Overcast,280,2012-10-18 12:51:00
7:53 AM,39.9,37.0,89,29.29,10.0,West,15.0,24.2,0.00,,Overcast,270,2012-10-18 12:53:00
8:29 AM,39.2,37.4,93,29.28,5.0,West,17.3,-,0.00,Rain,Light Rain,270,2012-10-18 13:29:00
8:41 AM,39.2,37.4,93,29.28,1.8,West,15.0,-,0.00,Rain,Light Rain,270,2012-10-18 13:41:00
8:53 AM,39.9,37.0,89,29.28,2.0,West,17.3,23.0,0.00,Rain,Light Rain,270,2012-10-18 13:53:00
9:09 AM,39.2,37.4,93,29.28,1.8,West,15.0,-,0.00,Rain,Light Rain,270,2012-10-18 14:09:00
9:17 AM,39.2,37.4,93,29.28,2.0,West,13.8,-,0.00,,Overcast,270,2012-10-18 14:17:00
9:25 AM,39.2,37.4,93,29.28,1.8,West,15.0,23.0,0.00,,Overcast,280,2012-10-18 14:25:00
9:37 AM,39.2,37.4,93,29.27,2.5,West,13.8,-,0.00,,Overcast,280,2012-10-18 14:37:00
9:53 AM,41.0,37.9,89,29.27,3.0,West,11.5,-,0.00,,Overcast,270,2012-10-18 14:53:00
10:01 AM,39.2,37.4,93,29.27,2.0,West,15.0,20.7,0.00,Rain,Light Rain,260,2012-10-18 15:01:00
10:17 AM,41.0,37.4,87,29.26,6.0,West,13.8,-,0.01,,Overcast,270,2012-10-18 15:17:00
10:42 AM,41.0,39.2,93,29.26,2.0,West,13.8,-,0.01,,Overcast,260,2012-10-18 15:42:00
10:48 AM,41.0,39.2,93,29.26,1.8,WSW,15.0,-,0.01,Rain,Light Rain,250,2012-10-18 15:48:00
10:51 AM,41.0,39.2,93,29.25,2.0,West,15.0,-,0.01,Rain,Light Rain,260,2012-10-18 15:51:00
10:53 AM,42.1,39.0,89,29.26,2.0,West,16.1,-,0.01,Rain,Light Rain,260,2012-10-18 15:53:00
11:00 AM,42.8,39.2,87,29.25,2.5,West,13.8,21.9,0.00,Rain,Light Rain,260,2012-10-18 16:00:00
11:04 AM,42.8,39.2,87,29.25,3.0,West,16.1,21.9,0.00,Rain,Light Rain,270,2012-10-18 16:04:00
11:46 AM,42.8,39.2,87,29.25,4.0,West,16.1,-,0.00,,Overcast,270,2012-10-18 16:46:00
11:53 AM,43.0,39.9,89,29.25,3.0,West,12.7,-,0.00,,Overcast,270,2012-10-18 16:53:00
12:08 PM,44.6,41.0,87,29.25,4.0,West,13.8,25.3,N/A,,Overcast,270,2012-10-18 17:08:00
12:23 PM,44.6,41.0,87,29.25,5.0,West,16.1,-,N/A,,Overcast,270,2012-10-18 17:23:00
12:40 PM,44.6,41.0,87,29.25,2.5,West,16.1,21.9,0.00,Rain,Light Rain,270,2012-10-18 17:40:00
12:50 PM,44.6,42.8,93,29.25,3.0,West,11.5,-,0.00,Rain,Light Rain,280,2012-10-18 17:50:00
12:53 PM,44.1,41.0,89,29.25,4.0,West,15.0,-,0.00,,Overcast,270,2012-10-18 17:53:00
1:04 PM,44.6,42.8,93,29.25,7.0,West,11.5,-,N/A,,Overcast,270,2012-10-18 18:04:00
1:15 PM,44.6,42.8,93,29.25,10.0,West,13.8,-,N/A,,Overcast,260,2012-10-18 18:15:00
1:25 PM,44.6,41.0,87,29.25,9.0,West,13.8,-,N/A,,Overcast,270,2012-10-18 18:25:00
1:35 PM,44.6,41.0,87,29.25,7.0,West,16.1,-,N/A,,Overcast,280,2012-10-18 18:35:00
1:53 PM,44.1,41.0,89,29.26,5.0,West,16.1,21.9,0.00,Rain,Light Rain,280,2012-10-18 18:53:00
2:21 PM,44.6,41.0,87,29.26,6.0,WNW,13.8,-,0.00,,Overcast,290,2012-10-18 19:21:00
2:53 PM,46.0,42.1,86,29.27,10.0,West,11.5,-,0.00,,Overcast,270,2012-10-18 19:53:00
3:07 PM,46.4,42.8,87,29.27,10.0,West,10.4,-,N/A,,Overcast,280,2012-10-18 20:07:00
3:53 PM,46.9,42.1,83,29.28,10.0,West,11.5,-,0.00,,Overcast,280,2012-10-18 20:53:00
4:19 PM,46.4,42.8,87,29.29,10.0,WNW,8.1,-,0.00,Rain,Light Rain,290,2012-10-18 21:19:00
4:38 PM,46.4,42.8,87,29.30,10.0,West,8.1,-,0.00,,Overcast,280,2012-10-18 21:38:00
4:46 PM,46.4,42.8,87,29.30,10.0,West,9.2,-,0.00,,Overcast,280,2012-10-18 21:46:00
4:53 PM,46.9,42.1,83,29.30,10.0,West,8.1,-,0.00,,Overcast,280,2012-10-18 21:53:00
5:53 PM,46.0,42.1,86,29.33,5.0,NW,8.1,-,0.00,Rain,Light Rain,320,2012-10-18 22:53:00
5:58 PM,46.4,42.8,87,29.32,2.0,NW,9.2,-,0.01,Rain,Light Rain,320,2012-10-18 22:58:00
6:00 PM,46.4,42.8,87,29.32,1.8,NW,9.2,-,0.01,Rain,Light Rain,320,2012-10-18 23:00:00
6:03 PM,46.4,42.8,87,29.33,2.0,NW,9.2,-,0.01,Rain,Light Rain,320,2012-10-18 23:03:00
6:13 PM,44.6,42.8,93,29.33,9.0,WNW,9.2,-,0.01,,Overcast,300,2012-10-18 23:13:00
6:28 PM,44.6,42.8,93,29.33,10.0,NW,8.1,-,0.01,,Overcast,310,2012-10-18 23:28:00
6:53 PM,45.0,43.0,93,29.34,10.0,NW,8.1,-,0.01,,Overcast,320,2012-10-18 23:53:00
7:39 PM,44.6,42.8,93,29.37,10.0,NNW,10.4,-,0.00,Rain,Light Rain,340,2012-10-19 00:39:00
7:53 PM,45.0,42.1,90,29.37,10.0,NNW,8.1,-,0.00,,Overcast,330,2012-10-19 00:53:00
8:04 PM,44.6,42.8,93,29.37,10.0,North,6.9,-,N/A,,Overcast,350,2012-10-19 01:04:00
8:19 PM,44.6,42.8,93,29.38,10.0,NNW,5.8,-,N/A,,Overcast,340,2012-10-19 01:19:00
8:35 PM,44.6,41.0,87,29.38,10.0,NNW,8.1,-,N/A,,Overcast,330,2012-10-19 01:35:00
8:53 PM,44.1,41.0,89,29.39,10.0,NW,8.1,-,N/A,,Overcast,320,2012-10-19 01:53:00
9:46 PM,42.8,39.2,87,29.39,10.0,NW,5.8,-,N/A,,Overcast,320,2012-10-19 02:46:00
9:53 PM,41.0,39.0,93,29.40,10.0,NW,5.8,-,N/A,,Overcast,310,2012-10-19 02:53:00
10:32 PM,37.4,37.4,100,29.40,1.8,NW,3.5,-,N/A,,Mostly Cloudy,320,2012-10-19 03:32:00
10:43 PM,37.4,35.6,93,29.40,0.5,Calm,Calm,-,N/A,Fog,Fog,0,2012-10-19 03:43:00
10:53 PM,37.0,36.0,96,29.41,0.5,Calm,Calm,-,N/A,Fog,Fog,0,2012-10-19 03:53:00
11:53 PM,39.0,37.9,96,29.41,1.0,WNW,4.6,-,N/A,,Mostly Cloudy,290,2012-10-19 04:53:00